SB KEPS @ AMSAT $ORB12257.N 2Line Orbital Elements 12257.AMSAT
HR AMSAT ORBITAL ELEMENTS FOR AMATEUR SATELLITES IN NASA FORMAT FROM WA5QGD FORT WORTH,TX September 13, 2012 Send SUBSCRIBE KEPS/UNSUBSCRIBE KEPS to majordomo@amsat.org only BID: ORB12257.N
DECODE 2-LINE ELSETS WITH THE FOLLOWING KEY: 1 AAAAAU 00 0 0 BBBBB.BBBBBBBB .CCCCCCCC 00000-0 00000-0 0 DDDZ 2 AAAAA EEE.EEEE FFF.FFFF GGGGGGG HHH.HHHH III.IIII JJ.JJJJJJJJKKKKKZ KEY: A-CATALOGNUM B-EPOCHTIME C-DECAY D-ELSETNUM E-INCLINATION F-RAAN G-ECCENTRICITY H-ARGPERIGEE I-MNANOM J-MNMOTION K-ORBITNUM Z-CHECKSUM
TO ALL RADIO AMATEURS BT
AO-07 1 07530U 74089B 12256.61218065 -.00000027 00000-0 10000-3 0 4795 2 07530 101.4099 250.4681 0012001 109.6272 250.6089 12.53591141731001 FO-29 1 24278U 96046B 12257.77753750 -.00000024 00000-0 10210-4 0 9339 2 24278 098.5869 346.8525 0350746 159.8737 201.6626 13.52988495793936 SO-33 1 25509U 98061B 12256.25697024 .00000067 00000-0 -11920-5 0 03228 2 25509 031.4340 200.9388 0352710 245.1762 111.1807 14.28811000725113 RS-22 1 27939U 03042A 12257.77523525 .00000434 00000-0 90937-4 0 7207 2 27939 097.8068 094.0292 0013316 349.4917 010.6014 14.64126617478848 VO-52 1 28650U 05017B 12256.62998154 .00000765 00000-0 99336-4 0 02067 2 28650 097.5923 283.2924 0027373 112.3048 248.1060 14.83164870397933 HO-68 1 36122U 09072B 12257.68798889 -.00000044 00000-0 00000 0 0 8258 2 36122 100.3514 315.2139 0007045 267.5177 092.5125 13.16297849132038 UO-11 1 14781U 84021B 12257.79308521 .00000302 00000-0 46244-4 0 9740 2 14781 097.9459 316.4977 0010107 103.2844 256.9492 14.80554805533046 AO-16 1 20439U 90005D 12257.82118714 .00000163 00000-0 76686-4 0 5578 2 20439 098.4361 198.7400 0009958 258.0110 101.9955 14.32083533182685 LO-19 1 20442U 90005G 12257.83078848 .00000039 00000-0 30253-4 0 4870 2 20442 098.4037 201.4498 0011019 247.8629 112.1388 14.32299193182876 AO-27 1 22825U 93061C 12256.88058230 .00000139 00000-0 71398-4 0 02075 2 22825 098.5803 198.3563 0008966 026.9075 333.2562 14.29485131989005 IO-26 1 22826U 93061D 12256.86461518 .00000183 00000-0 88112-4 0 09619 2 22826 098.5757 198.6894 0009556 020.7233 339.4331 14.29761305989134 GO-32 1 25397U 98043D 12257.83513956 .00000165 00000-0 91037-4 0 8734 2 25397 098.3715 232.2259 0002089 045.2106 314.9270 14.23292676736636 NO-44 1 26931U 01043C 12257.59765094 -.00000114 00000-0 -12105-4 0 1354 2 26931 067.0497 252.4727 0006613 253.8475 106.1893 14.29827925571881 SO-50 1 27607U 02058C 12257.80261858 .00000687 00000-0 12453-3 0 8631 2 27607 064.5586 025.3098 0077443 230.8660 128.5531 14.72506215523014 CO-55 1 27844U 03031E 12256.51208996 .00000300 00000-0 15816-3 0 04620 2 27844 098.7060 263.6304 0009624 337.3709 022.7033 14.21070443477296 CO-57 1 27848U 03031J 12256.53116840 .00000257 00000-0 13915-3 0 04126 2 27848 098.7129 263.0213 0009503 342.2648 017.8180 14.20816158477234 AO-51 1 28375U 04025K 12257.89179708 .00000146 00000-0 56136-4 0 3644 2 28375 098.1576 219.0906 0083790 131.6239 229.2185 14.40984362431549 CP3 1 31129U 07012N 12257.56404650 .00000751 00000-0 18011-3 0 2623 2 31129 097.8828 260.1533 0100262 207.5873 151.9984 14.53203640286813 CO-65 1 32785U 08021C 12256.81858655 .00001129 00000-0 14452-3 0 4131 2 32785 097.7891 315.7636 0015750 132.3688 227.8772 14.83180062236759 PRISM 1 33493U 09002B 12257.78611450 .00002955 00000-0 35808-3 0 676 2 33493 098.1832 040.5464 0018945 013.4631 346.7072 14.84313438196894 SOHLA-1 1 33496U 09002E 12256.91206372 .00000316 00000-0 60928-4 0 08529 2 33496 098.1116 008.1043 0007389 116.3123 243.8837 14.70040256195136 SO-67 1 35870U 09049F 12257.81115994 .00003910 00000-0 16189-3 0 3232 2 35870 097.2259 290.4431 0001601 162.3906 285.3348 15.24493761166117 TISAT-1 1 36799U 10035E 12257.78312188 .00001905 00000-0 24532-3 0 3424 2 36799 098.0562 334.7520 0013592 242.9105 117.0689 14.82235329117610 STUDSAT 1 36801U 10035G 12257.83160594 .00005657 00000-0 66718-3 0 4708 2 36801 098.0640 335.9408 0011763 228.6388 131.3808 14.85101785117670 FO-69 1 37227U 0 12257.48491356 .00000507 00000-0 79295-4 0 02832 2 37227 071.9693 117.1058 0016859 161.4476 198.7304 14.77165136049139 FO-70 1 37380U 0 12257.50537911 .00000470 00000-0 74483-4 0 02870 2 37380 071.9726 117.7321 0017300 158.0228 202.1680 14.76915712049021 ALMASAT-1 1 38078U 12006B 12257.75916272 .00018436 00000-0 51317-3 0 5618 2 38078 069.4820 116.2414 0745153 137.8145 228.2826 14.12084209 30048 XATCOBEO 1 38082U 12006F 12257.77415227 .00045883 00000-0 11118-2 0 5484 2 38082 069.4830 111.5895 0706252 135.2754 230.7583 14.23087041 30160 NOAA-10 1 16969U 86073A 12256.98201832 .00000058 00000-0 41241-4 0 00668 2 16969 098.5778 284.4516 0012196 342.0928 017.9823 14.27575729352395 NOAA-11 1 19531U 88089A 12256.68650482 -.00000069 00000-0 -13212-4 0 00549 2 19531 098.7292 339.9920 0011333 338.9464 021.1243 14.14980207236887 NOAA-12 1 21263U 91032A 12256.92536179 -.00000033 00000-0 47618-5 0 05519 2 21263 098.7251 278.1641 0013223 309.6194 050.3818 14.25516782109051 MET-3/5 1 21655U 91056A 12257.80357775 .00000050 00000-0 97803-4 0 5036 2 21655 082.5521 089.5836 0014508 101.8380 258.4370 13.17039900 13558 MET-2/21 1 22782U 93055A 12257.59310560 -.00000051 00000-0 -59737-4 0 5268 2 22782 082.5504 322.3734 0020897 264.9270 094.9516 13.83688299961396 OKEAN-4 1 23317U 94066A 12257.84091952 .00000480 00000-0 54526-4 0 9972 2 23317 082.5413 308.3190 0023110 061.4918 298.8621 14.83942185967958 NOAA-14 1 23455U 94089A 12256.93924007 .00000013 00000-0 30152-4 0 00348 2 23455 098.8239 339.3192 0010411 067.0738 293.1528 14.13869716913197 NOAA-15 1 25338U 98030A 12256.74937973 .00000032 00000-0 32401-4 0 04002 2 25338 098.6984 242.8699 0010084 209.7302 150.3262 14.25116504745322 RESURS 1 25394U 98043A 12257.91731355 .00000070 00000-0 48198-4 0 1834 2 25394 098.3285 241.5208 0001871 015.0204 345.1031 14.24295987737039 FENGYUN1 1 25730U 99025A 12256.94280963 .00000919 00000-0 54695-3 0 07055 2 25730 098.8504 214.4296 0019737 106.3048 254.0288 14.09744579686975 OKEAN-0 1 25860U 99039A 12257.90141701 .00000607 00000-0 99276-4 0 7348 2 25860 097.9472 218.7839 0001172 034.8559 325.2715 14.74298022707642 NOAA-16 1 26536U 00055A 12256.71542925 -.00000159 00000-0 -60861-4 0 08882 2 26536 099.0860 300.1559 0010251 193.5708 166.5181 14.12777962617391 NOAA-17 1 27453U 02032A 12256.75488909 .00000103 00000-0 62046-4 0 08348 2 27453 098.3323 279.3507 0010685 259.4092 100.5870 14.24480326531223 NOAA-18 1 28654U 05018A 12256.74029448 .00000247 00000-0 16060-3 0 03165 2 28654 099.0552 215.5990 0013449 269.9177 090.0446 14.11697558376916 NOAA-19 1 33591U 09005A 12256.76792008 .00000032 00000-0 41959-4 0 05050 2 33591 098.8677 195.4920 0014570 130.3334 229.9137 14.11382424185368 HUBBLE 1 20580U 90037B 12257.19433996 .00001792 00000-0 11840-3 0 699 2 20580 028.4704 287.5150 0003044 270.3566 089.6521 15.02776566 27982 ISS 1 25544U 98067A 12257.82977436 .00001057 00000-0 26131-4 0 2941 2 25544 051.6423 040.6026 0015298 067.3440 067.8785 15.50570216791796 CO-58 1 28895U 05043F 12257.58725851 .00000498 00000-0 11114-3 0 2751 2 28895 097.9023 119.9199 0016590 231.1798 128.7929 14.60740140366566 FALCON 1 30776U 07006E 12256.92273192 .00004322 00000-0 27644-3 0 04382 2 30776 035.4320 100.7235 0001643 352.5781 007.4911 15.08171905303505 MAST 1 31126U 07012K 12257.57060482 .00000236 00000-0 62806-4 0 5568 2 31126 097.8759 263.5117 0093116 194.6648 165.1841 14.54249963287115 CAPE1 1 31130U 07012P 12257.54196351 .00000453 00000-0 11292-3 0 5669 2 31130 097.8846 259.8225 0100778 208.3130 151.2551 14.53060567286604 COMPASS 1 32787U 08021E 12257.65840782 .00001307 00000-0 16171-3 0 4080 2 32787 097.7939 317.0120 0016098 128.1199 232.1470 14.84319492236939 AAUSAT2 1 32788U 08021F 12257.67551030 .00001931 00000-0 23406-3 0 4002 2 32788 097.7939 317.4609 0015883 128.3148 231.9494 14.84671053236963 DO-64 1 32789U 08021G 12257.69528608 .00002735 00000-0 31555-3 0 4164 2 32789 097.8054 319.8540 0015332 124.6480 235.6114 14.86383949237024 CO-66 1 32791U 08021J 12257.81930252 .00001365 00000-0 17118-3 0 3978 2 32791 097.7894 316.8353 0016857 128.6979 231.5673 14.83681916236887 RS-30 1 32953U 08025A 12257.66581326 .00000010 00000-0 00000 0 0 1375 2 32953 082.4985 240.1107 0020063 112.2549 248.0659 12.43027491195552 PHARMSAT 1 35002U 09028B 12226.86484473 .07728342 73476-5 57159-3 0 789 2 35002 040.4341 050.6671 0012079 300.9773 059.0492 16.39309245183554 METEOR-M 1 35865U 09049A 12257.74489430 -.00000003 00000-0 18120-4 0 7746 2 35865 098.6451 310.3679 0002616 137.2531 222.8849 14.21869055155184 RS-38 1 35869U 09049E 12257.75274802 .00000033 00000-0 34407-4 0 7654 2 35869 098.6405 310.3561 0004709 145.5782 214.5700 14.22086478155200 JUGNU 1 37839U 11058B 12256.93686288 .00000620 00000-0 19019-3 0 02276 2 37839 019.9597 186.6331 0019577 109.8182 250.4331 14.12080607047668 SRMSAT 1 37841U 11058D 12256.19097637 .00000264 00000-0 00000-0 0 02283 2 37841 019.9698 197.7329 0011639 066.8198 293.3459 14.10160012047498 RAX-2 1 37853U 11061D 12256.91860898 .00005771 00000-0 45634-3 0 02932 2 37853 101.7074 337.0625 0244558 100.7766 262.0992 14.80737686047381 AUBIESAT 1 37854U 11061E 12256.91663524 .00005775 00000-0 44785-3 0 02918 2 37854 101.7128 337.4275 0246036 100.0961 262.7948 14.81189685047378 HRBE 1 37855U 11061F 12256.93977703 .00006009 00000-0 46815-3 0 02870 2 37855 101.7102 337.3866 0245978 100.1602 262.7397 14.81006242047378 RS-39 1 38051U 11062C 12257.79386194 .00008236 00000-0 33111-3 0 6988 2 38051 051.6340 097.1826 0012259 358.0732 111.7738 15.25703019 35490 E-STAR 1 38079U 12006C 12257.72810913 .00036752 00000-0 89938-3 0 5016 2 38079 069.4793 112.5268 0717640 135.8730 230.1988 14.20490874 30131 GOLIAT 1 38085U 12006J 12257.71346421 .00036476 00000-0 88659-3 0 4718 2 38085 069.4846 113.1469 0723537 136.2709 229.8075 14.19377063 30112 HORYU-2 1 38340U 12025D 12256.83470936 .00001221 00000-0 21104-3 0 1432 2 38340 098.1799 196.7879 0013976 054.4372 305.8148 14.70163300 17351 RS-40 1 38736U 12041D 12256.66313645 .00000010 00000-0 00000-0 0 00526 2 38736 082.4823 328.1654 0018150 210.0773 149.9268 12.42646472005776 PROITERES 1 38756U 12047B 12257.77251113 .00000387 00000-0 67262-4 0 252 2 38756 098.2855 323.3402 0011377 265.6187 094.3689 14.73869786 670 /EX